Fort Collins, CO

4:07 PM MDT on April 22, 2018 (GMT -0600)
Fort Collins-Loveland Municipal

Weather History for KFNL - July, 2014

Change the Weather History Date:

Monday, July 28, 2014

  Actual Average Record
Temperature  
Mean Temperature 74 °F -  
Max Temperature 87 °F - 96 °F (2006)
Min Temperature 60 °F - 43 °F (2016)
Degree Days  
Heating Degree Days 0    
Month to date heating degree days  
Cooling Degree Days 8    
Month to date cooling degree days  
Growing Degree Days 24 (Base 50)    
Moisture  
Dew Point 57 °F    
Average Humidity 62    
Maximum Humidity 88    
Minimum Humidity 39    
Precipitation  
Precipitation 0.00 in - 0.51 in (1997)
Sea Level Pressure  
Sea Level Pressure 30.31 in    
Wind  
Wind Speed 8 mph (NNE)    
Max Wind Speed 18 mph    
Max Gust Speed 21 mph    
Visibility 10 miles    
Events      
T = Trace of Precipitation, MM = Missing Value Source: NWS Daily Summary

Daily Weather History Graph

Daily Weather History Graph

Search for Another Location

Airport or City:

Astronomy

Jul. 28, 2014 Rise Set
Actual Time 5:53 AM MDT 8:18 PM MDT
Civil Twilight 5:22 AM MDT 8:49 PM MDT
Nautical Twilight 4:44 AM MDT 9:27 PM MDT
Astronomical Twilight 4:01 AM MDT 10:10 PM MDT
Moon 7:38 AM MDT (7/28) 9:01 PM MDT (7/28)
Length of Visible Light 15h 26m
Length of Day
14h 25m
Waxing Crescent, 3% of the Moon is Illuminated
Jul 28
Waxing Crescent
Aug 3
First Quarter
Aug 10
Full
Aug 17
Last Quarter
Aug 25
New

Hourly Weather History & Observations

Time (MDT) Temp. Heat Index Dew Point Humidity Pressure Visibility Wind Dir Wind Speed Gust Speed Precip Events Conditions
12:15 AM 66.2 °F - 59.0 °F 78% 30.36 in 10.0 mi SE 8.1 mph - N/A   Clear
12:35 AM 66.2 °F - 57.2 °F 73% 30.36 in 10.0 mi SE 5.8 mph - N/A   Clear
12:55 AM 66.2 °F - 57.2 °F 73% 30.36 in 10.0 mi SSE 4.6 mph - N/A   Clear
1:15 AM 66.2 °F - 57.2 °F 73% 30.35 in 10.0 mi SE 3.5 mph - N/A   Clear
1:35 AM 64.4 °F - 57.2 °F 77% 30.34 in 10.0 mi NNE 5.8 mph - N/A   Clear
1:55 AM 62.6 °F - 57.2 °F 82% 30.35 in 10.0 mi ENE 5.8 mph - N/A   Clear
2:15 AM 62.6 °F - 57.2 °F 82% 30.35 in 10.0 mi NE 4.6 mph - N/A   Clear
2:35 AM 62.6 °F - 57.2 °F 82% 30.35 in 10.0 mi ENE 5.8 mph - N/A   Clear
2:55 AM 62.6 °F - 57.2 °F 82% 30.35 in 10.0 mi NE 3.5 mph - N/A   Clear
3:15 AM 60.8 °F - 55.4 °F 82% 30.35 in 10.0 mi NNW 4.6 mph - N/A   Clear
3:35 AM 60.8 °F - 57.2 °F 88% 30.35 in 10.0 mi NNW 6.9 mph - N/A   Clear
3:55 AM 60.8 °F - 57.2 °F 88% 30.35 in 10.0 mi NNW 8.1 mph - N/A   Clear
4:15 AM 60.8 °F - 55.4 °F 82% 30.35 in 10.0 mi NNW 5.8 mph - N/A   Clear
4:35 AM 60.8 °F - 57.2 °F 88% 30.35 in 10.0 mi North 6.9 mph - N/A   Clear
4:55 AM 60.8 °F - 57.2 °F 88% 30.35 in 10.0 mi North 6.9 mph - N/A   Clear
5:15 AM 60.8 °F - 57.2 °F 88% 30.34 in 10.0 mi North 6.9 mph - N/A   Clear
5:35 AM 60.8 °F - 57.2 °F 88% 30.34 in 10.0 mi North 10.4 mph - N/A   Clear
5:55 AM 60.8 °F - 57.2 °F 88% 30.34 in 10.0 mi North 9.2 mph - N/A   Clear
6:15 AM 60.8 °F - 57.2 °F 88% 30.34 in 10.0 mi North 6.9 mph - N/A   Clear
6:35 AM 60.8 °F - 57.2 °F 88% 30.35 in 10.0 mi North 6.9 mph - N/A   Clear
6:55 AM 60.8 °F - 57.2 °F 88% 30.35 in 10.0 mi North 6.9 mph - N/A   Clear
7:15 AM 60.8 °F - 57.2 °F 88% 30.35 in 10.0 mi North 6.9 mph - N/A   Clear
7:35 AM 62.6 °F - 59.0 °F 88% 30.36 in 10.0 mi North 9.2 mph - N/A   Clear
7:55 AM 64.4 °F - 59.0 °F 83% 30.36 in 10.0 mi North 9.2 mph - N/A   Clear
8:15 AM 66.2 °F - 59.0 °F 78% 30.36 in 10.0 mi NNW 9.2 mph - N/A   Clear
8:35 AM 66.2 °F - 59.0 °F 78% 30.36 in 10.0 mi North 10.4 mph - N/A   Clear
8:55 AM 69.8 °F - 59.0 °F 68% 30.36 in 10.0 mi North 10.4 mph - N/A   Clear
9:15 AM 69.8 °F - 60.8 °F 73% 30.36 in 10.0 mi North 12.7 mph - N/A   Clear
9:35 AM 71.6 °F - 60.8 °F 69% 30.36 in 10.0 mi North 11.5 mph - N/A   Clear
9:55 AM 73.4 °F - 60.8 °F 65% 30.35 in 10.0 mi North 8.1 mph - N/A   Clear
10:15 AM 75.2 °F - 57.2 °F 53% 30.36 in 10.0 mi NE 8.1 mph - N/A   Clear
10:35 AM 77.0 °F - 57.2 °F 50% 30.35 in 10.0 mi East 8.1 mph - N/A   Clear
10:55 AM 77.0 °F - 57.2 °F 50% 30.35 in 10.0 mi ENE 8.1 mph - N/A   Clear
11:15 AM 78.8 °F - 57.2 °F 47% 30.34 in 10.0 mi NE 6.9 mph - N/A   Clear
11:35 AM 78.8 °F - 57.2 °F 47% 30.34 in 10.0 mi NE 5.8 mph - N/A   Clear
11:55 AM 80.6 °F 81.1 °F 59.0 °F 48% 30.33 in 10.0 mi NNE 6.9 mph - N/A   Clear
12:15 PM 82.4 °F 82.5 °F 59.0 °F 45% 30.32 in 10.0 mi NE 10.4 mph - N/A   Clear
12:35 PM 82.4 °F 82.0 °F 57.2 °F 42% 30.32 in 10.0 mi ENE 5.8 mph - N/A   Clear
12:55 PM 84.2 °F 83.5 °F 57.2 °F 40% 30.30 in 10.0 mi East 8.1 mph - N/A   Clear
1:15 PM 84.2 °F 83.5 °F 57.2 °F 40% 30.30 in 9.0 mi East 9.2 mph 16.1 mph N/A   Clear
1:35 PM 82.4 °F 82.0 °F 57.2 °F 42% 30.29 in 5.0 mi NE 4.6 mph 16.1 mph N/A   Clear
2:15 PM 82.4 °F 81.7 °F 55.4 °F 39% 30.28 in 10.0 mi NW 3.5 mph - N/A   Clear
2:35 PM 80.6 °F 80.5 °F 55.4 °F 42% 30.28 in 10.0 mi WNW 5.8 mph - N/A   Clear
2:55 PM 80.6 °F 80.8 °F 57.2 °F 45% 30.28 in 10.0 mi NW 6.9 mph - N/A   Clear
3:15 PM 82.4 °F 82.0 °F 57.2 °F 42% 30.27 in 10.0 mi West 10.4 mph - N/A   Clear
3:35 PM 82.4 °F 82.0 °F 57.2 °F 42% 30.26 in 10.0 mi West 9.2 mph - N/A   Clear
3:55 PM 82.4 °F 82.0 °F 57.2 °F 42% 30.25 in 10.0 mi WNW 9.2 mph - N/A   Clear
4:15 PM 82.4 °F 82.0 °F 57.2 °F 42% 30.24 in 10.0 mi WNW 6.9 mph - N/A   Clear
4:35 PM 84.2 °F 83.5 °F 57.2 °F 40% 30.23 in 10.0 mi NNW 4.6 mph - N/A   Clear
4:55 PM 84.2 °F 83.5 °F 57.2 °F 40% 30.23 in 10.0 mi NNW 8.1 mph - N/A   Clear
5:15 PM 84.2 °F 83.5 °F 57.2 °F 40% 30.23 in 10.0 mi NW 5.8 mph - N/A   Clear
5:35 PM 87.8 °F 87.6 °F 60.8 °F 40% 30.21 in 10.0 mi ESE 18.4 mph - N/A   Scattered Clouds
5:55 PM 82.4 °F 81.7 °F 55.4 °F 39% 30.21 in 10.0 mi South 18.4 mph - N/A   Partly Cloudy
6:15 PM 82.4 °F 82.5 °F 59.0 °F 45% 30.20 in 10.0 mi South 13.8 mph 19.6 mph N/A   Clear
6:35 PM 82.4 °F 82.5 °F 59.0 °F 45% 30.19 in 10.0 mi SSW 11.5 mph - N/A   Clear
6:55 PM 82.4 °F 81.7 °F 55.4 °F 39% 30.18 in 10.0 mi South 11.5 mph - N/A   Clear
7:15 PM 80.6 °F 80.5 °F 55.4 °F 42% 30.19 in 10.0 mi South 9.2 mph - N/A   Clear
7:35 PM 78.8 °F - 53.6 °F 42% 30.21 in 10.0 mi SSE 6.9 mph - N/A   Clear
7:55 PM 78.8 °F - 53.6 °F 42% 30.23 in 10.0 mi ESE 12.7 mph - N/A   Clear
8:15 PM 75.2 °F - 55.4 °F 50% 30.25 in 10.0 mi NE 16.1 mph 20.7 mph N/A   Partly Cloudy
8:55 PM 71.6 °F - 57.2 °F 60% 30.26 in 10.0 mi ENE 11.5 mph - N/A   Clear
9:15 PM 71.6 °F - 55.4 °F 57% 30.27 in 10.0 mi East 11.5 mph - N/A   Clear
9:35 PM 71.6 °F - 55.4 °F 57% 30.29 in 10.0 mi ENE 9.2 mph - N/A   Clear
9:55 PM 71.6 °F - 55.4 °F 57% 30.29 in 10.0 mi WNW 5.8 mph - N/A   Clear
10:15 PM 71.6 °F - 57.2 °F 60% 30.30 in 10.0 mi North 5.8 mph - N/A   Scattered Clouds
10:35 PM 71.6 °F - 57.2 °F 60% 30.31 in 10.0 mi North 11.5 mph - N/A   Scattered Clouds
10:55 PM 71.6 °F - 57.2 °F 60% 30.30 in 10.0 mi North 9.2 mph - N/A   Partly Cloudy
11:15 PM 68.0 °F - 55.4 °F 64% 30.30 in 10.0 mi NNW 10.4 mph - N/A   Clear
11:35 PM 66.2 °F - 55.4 °F 68% 30.29 in 10.0 mi NW 6.9 mph - N/A   Clear
11:55 PM 66.2 °F - 53.6 °F 64% 30.28 in 10.0 mi North 4.6 mph - N/A   Clear